Location: Bristol
(43.4119°N, 93.4680°W)
Time: 00:50:25
(UTC+00:00)

Daily predictions for brighter satellites

Satellite Brightness Start Highest point End
(mag) Time Altitude Azimuth Time Altitude Azimuth Time Altitude Azimuth
BREEZE-M R/B 4.1 00:12:23 10° WNW 00:16:40 58° NNE 00:25:36 10° E
COSMO-SKYMED 1 2.5 00:15:46 10° NNE 00:20:08 71° ESE 00:24:27 10° S
Cosmos 1340 Rocket 2.8 00:16:18 10° N 00:20:21 89° NE 00:24:21 10° S
USA 81 4.1 00:15:23 10° S 00:20:34 65° E 00:25:47 10° N
Cosmos 2181 Rocket 4.0 00:14:40 10° S 00:21:03 77° E 00:27:23 10° N
USA 305 1.4 00:19:32 10° NW 00:21:47 70° SW 00:24:01 10° SE
Cosmos 2237 Rocket 2.9 00:16:51 10° SSE 00:21:53 33° ESE 00:26:56 10° NE
Okean 3 3.5 00:18:54 10° N 00:23:03 84° W 00:27:11 10° S
Meteor PRIRODA 3.5 00:19:50 10° SSE 00:23:19 65° ENE 00:26:51 10° N
NOSS 3-1 (C) 3.1 00:18:32 10° SSW 00:23:26 87° SE 00:29:18 10° NE
USA 307 2.8 00:22:42 10° WNW 00:25:09 41° SW 00:27:41 10° SSE
Meteor 1-29 3.1 00:23:23 10° S 00:26:11 61° WSW 00:29:01 10° NNW
Okean 1-7 3.0 00:24:16 10° N 00:28:38 89° E 00:32:59 10° S
SL-16 R/B 3.8 00:30:15 10° ESE 00:32:09 12° E 00:34:02 10° ENE
COSMOS 2455 2.8 00:26:43 10° NNW 00:32:46 77° ENE 00:38:45 10° SE
Cosmos 1818 3.7 00:28:28 10° NW 00:33:58 87° WSW 00:39:25 10° SSE
Okean O Rocket 3.4 00:31:45 10° E 00:34:03 14° ENE 00:36:26 10° NNE
Cosmos 1943 Rocket 3.2 00:30:59 10° N 00:35:46 27° NE 00:40:14 11° ESE
Cosmos 2322 4.4 00:30:08 10° SW 00:35:47 60° WNW 00:41:27 10° NNE
Cosmos 1821 Rocket 4.1 00:31:09 10° N 00:37:23 60° E 00:43:39 10° SSE
CZ-4B R/B 2.5 00:36:35 10° SSE 00:40:01 64° ENE 00:43:31 10° N
Cosmos 2333 Rocket 4.3 00:35:21 10° WSW 00:40:07 27° NW 00:44:56 10° N
NOSS 0 Rocket 3.9 00:34:19 10° SSW 00:40:27 69° ESE 00:46:39 10° NNE
COSMOS 2428 3.2 00:38:41 10° SW 00:44:18 65° WNW 00:49:58 10° NNE
SKYMED 3 4.4 00:43:24 10° NNE 00:47:33 62° E 00:51:42 10° S
YAOGAN 3 4.5 00:45:49 10° SSE 00:50:08 84° ENE 00:54:29 10° NNW
Cosmos 2219 Rocket 4.0 00:48:25 10° WSW 00:53:21 31° NW 00:58:20 10° N
IGS 5A 3.3 00:53:11 10° SSE 00:57:13 66° ENE 01:01:18 10° N
Cosmos 1733 Rocket 3.9 00:53:47 10° SSE 00:57:28 27° E 01:01:09 10° NNE
ATLAS 3B R/B 3.3 00:50:40 10° SW 00:57:31 65° NW 01:04:55 10° NNE
Nadezhda 3 Rocket 4.0 00:53:48 10° S 01:00:05 68° E 01:06:24 10° NNE
Resurs 01 Rocket 3.5 01:02:31 14° ENE 01:02:31 14° ENE 01:04:25 10° NNE
ADEOS Rocket 4.4 00:59:35 16° ESE 01:03:55 28° ENE 01:09:43 10° N
BREEZE M DEB (TANK) 1.4 01:02:28 10° WSW 01:04:37 84° NNW 01:06:32 21° ENE
Cosmos 1766 3.1 01:01:48 10° S 01:05:34 85° W 01:09:21 10° N
USA 276 1.9 01:03:21 10° SW 01:05:51 45° SE 01:06:08 42° ESE
ISS -1.9 01:05:07 10° WNW 01:07:58 26° SW 01:10:50 10° SSE
Meteor 1-24 Rocket 4.5 01:05:21 10° N 01:09:57 28° ENE 01:11:34 24° E
SPOT 1/Viking Rocket 4.4 01:12:44 24° E 01:14:14 29° ENE 01:18:35 10° N
Okean 2 4.3 01:11:41 10° NNW 01:15:35 49° W 01:19:27 10° SSW
Meteor 2-5 Rocket 4.3 01:10:28 10° N 01:15:36 35° ENE 01:17:52 25° ESE
Okean-O 4.4 01:16:48 16° NE 01:16:48 16° NE 01:18:45 10° NNE
Cosmos 2242 Rocket 3.7 01:12:55 10° N 01:17:27 78° W 01:21:59 10° S
CZ-4C R/B 3.3 01:16:51 10° NNE 01:23:12 12° S 01:23:30 10° S
Cosmos 1378 Rocket 4.4 01:16:39 10° NNE 01:20:22 29° ENE 01:20:22 29° ENE
USA 229 DEB 3.5 01:15:10 10° SSW 01:21:04 55° ESE 01:27:30 10° NE
USA 229 3.5 01:15:15 10° SSW 01:21:10 54° ESE 01:27:35 10° NE
CZ-4B DEB 4.5 01:17:55 10° S 01:23:20 68° WSW 01:28:46 10° NNW
Meteor 1-15 Rocket 4.3 01:20:25 10° S 01:25:56 53° E 01:31:23 10° NNE
Cosmos 1980 4.0 01:21:59 10° SSW 01:27:36 70° WNW 01:33:16 10° NNE
Cosmos 1140 Rocket 3.5 01:24:33 10° S 01:29:30 51° ESE 01:34:31 10° NNE
Cosmos 1023 Rocket 4.5 01:24:47 10° S 01:29:46 54° ESE 01:34:50 10° NNE
Cosmos 1867 3.8 01:24:52 10° SW 01:30:17 72° NW 01:35:45 10° NNE
CZ-4B R/B 3.0 01:28:35 11° SSE 01:33:38 80° ENE 01:38:59 10° NNW
CZ-4 R/B 1.2 01:35:19 24° S 01:37:33 81° WSW 01:41:22 10° NNW
NOSS 3-1 (A) 3.7 01:32:39 10° SW 01:37:34 56° NW 01:43:28 10° NNE
YAOGAN 1 4.0 01:33:57 10° SSW 01:37:58 38° W 01:41:59 10° NNW
SL-4 R/B 2.0 01:34:46 10° SW 01:39:05 62° SE 01:39:26 59° ESE
Cosmos 2278 Rocket 3.1 01:35:20 10° NW 01:40:46 49° WSW 01:46:11 10° S
Cosmos 1674 Rocket 4.0 01:37:25 10° N 01:41:12 43° ENE 01:41:12 43° ENE
MOS 1-B 4.3 01:40:38 12° SSE 01:46:04 87° WSW 01:51:53 10° NNW
Feng Yun 1-1 Rocket 4.2 01:42:18 22° SSE 01:46:13 79° ENE 01:51:54 10° NNW
Cosmos 1470 3.2 01:43:56 10° SSW 01:47:44 60° W 01:51:34 10° N
Cosmos 2251 Rocket 3.4 01:46:23 10° S 01:51:38 69° ESE 01:56:53 10° NNE
Tiangong -0.7 01:49:47 10° W 01:51:49 35° WSW 01:51:49 35° WSW
SJ-6B 3.1 01:52:04 38° S 01:53:26 66° WSW 01:57:25 10° NNW
BREEZE-M DEB (TANK) 3.3 01:54:07 10° WNW 01:56:59 67° SSW 01:57:48 55° SSE
Lacrosse 5 2.7 01:54:20 10° NW 01:59:02 35° NNE 01:59:17 35° NE
Cosmos 1605 Rocket 3.8 01:53:19 10° N 01:59:25 69° E 02:01:17 45° SSE
Cosmos 1934 Rocket 4.2 01:53:57 10° NNW 02:00:14 72° W 02:06:23 10° S
Cosmos 1656 Rocket 4.5 01:59:54 10° N 02:04:10 34° NE 02:04:10 34° NE
Cosmos 1535 Rocket 4.4 01:59:10 10° N 02:05:19 87° W 02:08:45 28° S
Cosmos 2237 Rocket 3.6 02:00:32 10° SW 02:05:50 39° WNW 02:11:10 10° NNE
Cosmos 2221 Rocket 3.6 02:04:31 10° N 02:08:46 77° NNW 02:08:46 77° NNW
Cosmos 2369 Rocket 3.1 02:04:01 10° N 02:08:19 34° NE 02:08:19 34° NE
Okean O Rocket 1.9 02:09:09 56° SW 02:09:49 64° WSW 02:14:15 10° NNW
USA 267 4.4 02:07:37 26° NE 02:09:50 32° NNE 02:15:29 10° NW
SL-16 R/B 2.0 02:09:39 10° SSW 02:15:19 85° ESE 02:21:02 10° NNE
SME Rocket 4.5 02:11:56 10° S 02:19:15 57° WSW 02:24:11 10° NNW
Cosmos 1943 Rocket 2.9 02:14:19 10° NW 02:19:47 51° WSW 02:21:47 35° SSW
Cosmos 2297 3.9 02:28:12 10° NNW 02:33:08 66° N 02:33:08 66° N
Resurs 01 Rocket 3.1 02:40:03 33° NNW 02:40:03 33° NNW 02:42:34 10° NNW
CZ-4C R/B 4.2 02:32:46 10° NNW 02:38:17 25° NNE 02:38:41 25° NE
Cosmos 407 Rocket 4.2 02:34:00 10° SW 02:39:07 53° WNW 02:44:19 10° NNE
ADEOS Rocket 3.7 02:46:32 47° SSW 02:48:51 69° WSW 02:56:05 10° NNW
CENTAUR R/B 3.5 02:43:49 10° NNW 02:51:46 51° NE 02:51:57 51° NE
BREEZE-M DEB (TANK) 4.4 02:50:46 10° W 03:03:29 71° NW 03:03:29 71° NW
Lacrosse 5 4.4 03:37:14 10° NW 03:38:28 17° WNW 03:38:28 17° WNW
USA 267 4.5 03:54:58 36° NW 03:54:58 36° NW 03:58:39 10° NW
Cosmos 2369 Rocket 4.4 03:48:05 10° NW 03:50:06 21° NW 03:50:06 21° NW
CZ-4C R/B 4.4 04:20:37 10° NW 04:23:48 30° NNW 04:23:48 30° NNW
CENTAUR R/B 4.4 04:34:36 10° NW 04:39:07 34° WNW 04:39:07 34° WNW
ATLAS 2AS CENTAUR R/B 3.8 08:31:49 39° N 08:31:49 39° N 08:36:34 10° NNE
ATLAS CENTAUR R/B 4.1 08:44:49 46° N 08:44:49 46° N 08:54:58 10° NE
ADEOS II 4.2 08:48:35 10° N 08:50:09 20° N 08:50:09 20° N
CZ-2D R/B 4.4 08:55:30 10° N 08:56:42 16° N 08:56:42 16° N
NOSS 3-1 (A) 4.0 09:06:31 46° NNW 09:09:19 84° NE 09:18:18 10° SE
Cosmos 2237 Rocket 4.4 09:09:36 10° N 09:14:00 22° NE 09:18:22 10° E
USA 281 3.5 09:09:21 10° NNE 09:14:43 56° NNW 09:14:43 56° NNW
ALOS 3.9 09:27:45 10° N 09:29:50 26° N 09:29:50 26° N
CZ-2C R/B 2.9 09:29:51 10° NNE 09:34:07 53° E 09:34:07 53° E
COSMOS 2428 2.8 09:32:23 10° NNW 09:38:07 76° ENE 09:43:49 10° SSE
Cosmos 44 Rocket 4.5 09:40:04 35° SE 09:41:00 39° ESE 09:45:45 10° NE
NOSS 0 Rocket 4.4 09:38:43 10° NNW 09:44:54 59° ENE 09:51:03 10° SE
Cosmos 2298 Rocket 3.9 09:47:18 87° E 09:47:18 87° E 09:52:37 10° NNE
Cosmos 2227 Rocket 4.3 09:45:55 10° SSE 09:50:16 23° E 09:54:39 10° NE
Cosmos 1743 Rocket 4.4 09:52:36 10° N 09:55:26 40° N 09:55:26 40° N
Cosmos 2150 Rocket 3.8 09:58:28 75° WSW 09:58:45 78° WNW 10:04:02 10° NNE
Cosmos 1805 Rocket 4.0 09:54:57 10° N 09:58:20 54° N 09:58:20 54° N
Meteor 1-27 Rocket 4.3 09:54:38 12° S 09:59:47 57° E 10:05:24 10° NNE
YAOGAN 6 4.1 09:58:27 10° NNE 10:00:15 29° NNE 10:00:15 29° NNE
Cosmos 1484 Rocket 4.4 09:58:58 10° NNE 10:02:14 31° E 10:04:30 16° SSE
CZ-2C R/B 3.5 09:58:48 10° N 10:03:59 48° WNW 10:03:59 48° WNW
BlueWalker 3 2.9 10:07:06 40° SE 10:07:06 40° SE 10:09:40 10° SE
Sich 1 2.9 10:02:41 10° N 10:07:02 88° W 10:07:12 83° S
USA 215 3.4 10:00:38 10° ESE 10:07:09 74° NE 10:12:53 14° NW
GP-B 2.9 10:07:58 72° S 10:08:25 86° W 10:12:52 10° N
Cosmos 1867 3.7 10:16:46 49° WSW 10:16:46 49° WSW 10:21:57 10° S
Meteor 1-11 Rocket 3.7 10:13:59 10° NNW 10:19:54 78° W 10:25:51 10° S
BREEZE-M DEB (TANK) 4.1 10:17:40 39° SW 10:19:55 83° SSE 10:38:28 10° ENE
Cosmos 1980 4.0 10:14:53 10° NNW 10:20:32 69° ENE 10:26:10 10° SSE
ATLAS 2AS CENTAUR R/B 4.5 10:19:15 15° NW 10:22:10 19° NNW 10:27:05 10° NNE
H-2A R/B 4.2 10:21:24 10° NE 10:26:02 28° E 10:30:37 10° SSE
Lacrosse 5 rocket 3.2 10:27:20 17° NNW 10:27:36 17° NNW 10:30:15 10° NNE
Cosmos 546 4.4 10:27:51 65° WNW 10:28:22 86° SSW 10:32:11 10° ESE
Cosmos 1536 3.6 10:25:41 10° NNW 10:28:09 35° NW 10:28:09 35° NW
Meteor 2-9 Rocket 4.3 10:23:55 10° N 10:29:48 81° ENE 10:35:31 10° SSE
NOAA 11 4.1 10:24:25 10° N 10:29:56 78° WNW 10:35:01 12° SSW
Cosmos 1745 Rocket 4.0 10:27:11 10° S 10:33:30 87° E 10:39:55 10° N
IRS-1D 4.2 10:30:19 10° N 10:35:04 35° WNW 10:35:50 33° W
Envisat 3.2 10:31:29 10° N 10:36:21 48° WNW 10:38:25 31° SW
Meteor 1-10 Rocket 4.5 10:34:53 32° WSW 10:36:53 44° WNW 10:42:11 10° N
ERS-2 4.3 10:34:36 10° NE 10:37:10 22° E 10:39:42 10° SSE
Cosmos 1726 3.3 10:34:30 10° N 10:37:46 39° ENE 10:41:00 10° SSE
Okean 1 3.1 10:37:37 30° SSW 10:39:23 68° W 10:43:14 10° N
H-2A R/B 3.2 10:36:54 10° NNE 10:40:20 53° E 10:43:43 10° S
BREEZE-M DEB (TANK) 3.4 10:40:39 33° W 10:42:30 68° NNW 10:56:24 10° ENE
USA 229 DEB 4.0 10:36:38 10° NW 10:44:00 58° WSW 10:51:52 10° SSE
USA 229 4.0 10:36:44 10° NW 10:44:05 59° WSW 10:51:56 10° SSE
Cosmos 2297 Rocket 2.1 10:42:34 17° SW 10:46:59 71° WNW 10:52:39 10° NNE
Cosmos 1975 4.2 10:44:10 10° N 10:47:56 41° ENE 10:51:42 10° SSE
Cosmos 2219 4.0 10:52:19 10° S 10:57:47 53° ESE 11:03:16 10° NNE
Cosmos 2237 Rocket 2.1 10:52:55 10° NNW 10:58:34 65° WSW 11:04:08 10° S
Cosmos 2344 3.7 10:51:28 10° SSW 10:59:11 74° ESE 11:06:32 10° NE
Meteor 2-10 4.1 10:55:20 10° N 11:00:37 83° E 11:05:42 10° SSE
Cosmos 1733 3.5 10:57:21 10° N 11:01:02 67° E 11:04:40 10° SSE
Cosmos 1151 Rocket 3.7 10:59:04 21° SW 11:01:16 33° WNW 11:05:14 10° N
SL-16 R/B 3.2 11:02:52 10° NNW 11:08:26 50° ENE 11:13:56 10° SE
Cosmos 1515 Rocket 3.9 11:06:13 10° S 11:10:35 70° E 11:14:56 10° NNE
CZ-2C R/B 3.8 11:09:08 10° NNW 11:12:13 18° WNW 11:13:26 16° W
Cosmos 1328 Rocket 3.7 11:08:55 10° SSW 11:13:12 51° WNW 11:17:30 10° N
Cosmos 1666 Rocket 3.9 11:10:29 10° NNW 11:14:35 41° W 11:18:38 10° SSW
COSMO-SKYMED 1 3.1 11:11:30 10° SSE 11:15:47 64° ENE 11:20:05 10° N
Cosmos 2181 Rocket 4.4 11:10:35 10° N 11:16:44 67° E 11:22:48 10° SSE
IRS-1C 4.1 11:11:29 10° N 11:16:47 67° WNW 11:22:03 10° SSW
ATLAS 5 CENTAUR R/B 4.5 11:17:33 10° N 11:19:31 12° NNE 11:21:38 10° NE
Cosmos 1933 Rocket 4.2 11:16:22 10° N 11:20:39 59° E 11:24:56 10° SSE
COSMOS 2428 4.1 11:18:20 10° WNW 11:21:38 16° W 11:24:57 10° SW
Cosmos 44 Rocket 4.2 11:18:47 14° WSW 11:22:33 34° NW 11:27:16 10° NNE
CZ-2D R/B 3.5 11:19:06 10° N 11:23:28 81° WNW 11:27:49 10° SSW
Helios 1A 3.4 11:20:23 10° SSW 11:24:09 36° W 11:27:58 10° NNW
ARIANE 5 R/B 2.6 11:23:31 10° N 11:28:25 56° WNW 11:33:17 10° SSW
Cosmos 1805 3.1 11:25:47 10° N 11:29:34 80° W 11:33:20 10° S
Cosmos 2227 Rocket 2.4 11:28:22 10° SW 11:33:54 54° WNW 11:39:28 10° NNE
Cosmos 1484 Rocket 4.2 11:33:34 10° NNW 11:36:02 18° WNW 11:38:31 10° WSW
Cosmos 2263 Rocket 3.1 11:30:50 10° S 11:36:16 54° ESE 11:41:44 10° NNE
ATLAS CENTAUR R/B 1.4 11:35:23 10° NNW 11:38:56 65° NE 11:42:30 10° SE
Cosmos 1633 Rocket 4.0 11:39:10 10° NNW 11:42:48 25° W 11:46:25 10° SW
BlueWalker 3 4.0 11:42:38 10° WSW 11:43:40 11° SW 11:44:42 10° SW
SAR-Lupe-2 3.8 11:44:53 10° NNE 11:48:28 74° ESE 11:52:01 10° S
USA 215 4.0 11:44:40 10° S 11:50:29 34° SW 11:56:20 10° WNW
